DW2074 Weather Reports


time (UTC)temp
C
wind
direction
speed
KPH
gust
KPH
rain 1hr
cm
rain 24hr
cm
rain mn
cm
humidity
%
barometer
mb
20260504110555 5 146 0.0 0.0 0.00 0.00 0.00 81 1013.0
20260504100516 2 146 0.0 0.0 0.00 0.00 0.00 88 1012.7
20260504081909 3 146 0.0 0.0 0.00 0.00 0.00 89 1013.2
20260504081406 3 146 0.0 0.0 0.00 0.00 0.00 87 1013.1
20260504080902 3 146 0.0 0.0 0.00 0.00 0.00 88 1013.0
20260504080359 3 146 0.0 0.0 0.00 0.00 0.00 88 1013.0
20260504070327 3 146 0.0 0.0 0.00 0.00 0.00 84 1012.8
20260504060247 3 146 0.0 0.0 0.00 0.00 0.00 83 1012.9
20260504050715 4 146 0.0 0.0 0.00 0.00 0.00 77 1013.0
20260504050212 4 146 0.0 0.0 0.00 0.00 0.00 77 1013.0
20260504045709 5 146 0.0 0.0 0.00 0.00 0.00 77 1013.0
20260504045209 5 146 0.0 0.0 0.00 0.00 0.00 77 1013.0
20260504044708 5 146 0.0 0.0 0.00 0.00 0.00 75 1012.9
20260504044204 5 146 0.0 0.0 0.00 0.00 0.00 75 1012.9
20260504043701 5 146 0.0 0.0 0.00 0.00 0.00 79 1012.8
20260504043158 5 146 0.0 0.0 0.00 0.00 0.00 79 1012.8
20260504042655 5 146 0.0 0.0 0.00 0.00 0.00 77 1012.7
20260504042152 5 146 0.0 0.0 0.00 0.00 0.00 77 1012.7
20260504041648 5 146 0.0 0.0 0.00 0.00 0.00 76 1012.8
20260504041144 5 146 0.0 0.0 0.00 0.00 0.00 76 1012.8
20260504040641 5 146 0.0 0.0 0.00 0.00 0.00 77 1012.8
20260504040138 5 146 0.0 0.0 0.00 0.00 0.00 77 1012.8
20260504035635 6 146 0.0 0.0 0.00 0.00 0.00 73 1012.7
20260504035132 6 146 0.0 0.0 0.00 0.00 0.00 73 1012.7
20260504034629 6 146 0.0 0.0 0.00 0.00 0.00 72 1012.6
20260504034126 6 146 0.0 0.0 0.00 0.00 0.00 72 1012.6
20260504033624 6 146 0.0 0.0 0.00 0.00 0.00 72 1012.5
20260504033121 6 146 0.0 0.0 0.00 0.00 0.00 72 1012.5
20260504032618 6 146 0.0 0.0 0.00 0.00 0.00 69 1012.6
20260504032115 6 146 0.0 0.0 0.00 0.00 0.00 69 1012.6
20260504031612 6 146 0.0 0.0 0.00 0.00 0.00 68 1012.5
20260504031108 6 146 0.0 0.0 0.00 0.00 0.00 68 1012.5
20260504030605 6 146 0.0 0.0 0.00 0.00 0.00 66 1012.4
20260504025559 6 146 0.0 0.0 0.00 0.00 0.00 66 1012.4
20260504025055 6 146 0.0 0.0 0.00 0.00 0.00 66 1012.4
20260504024552 7 146 0.0 0.0 0.00 0.00 0.00 65 1012.7
20260504024049 7 146 0.0 0.0 0.00 0.00 0.00 65 1012.7
20260504023546 7 146 0.0 0.0 0.00 0.00 0.00 64 1012.5
20260504023042 7 146 0.0 0.0 0.00 0.00 0.00 64 1012.5
20260504022538 7 146 0.0 0.0 0.00 0.00 0.00 63 1012.6
20260504022034 7 146 0.0 0.0 0.00 0.00 0.00 63 1012.6
20260504021532 7 146 0.0 0.0 0.00 0.00 0.00 62 1012.6
20260504021029 7 146 0.0 0.0 0.00 0.00 0.00 62 1012.6
20260504020525 7 146 0.0 0.0 0.00 0.00 0.00 61 1012.5
20260504020022 7 146 0.0 0.0 0.00 0.00 0.00 61 1012.5
20260504015518 8 146 0.0 0.0 0.00 0.00 0.00 60 1012.5
20260504015014 8 146 0.0 0.0 0.00 0.00 0.00 60 1012.5
20260504014510 8 146 0.0 0.0 0.00 0.00 0.00 59 1012.3
20260504014008 8 146 0.0 0.0 0.00 0.00 0.00 59 1012.3
20260504013506 8 146 0.0 0.0 0.00 0.00 0.00 57 1012.3
20260504013001 8 146 0.0 0.0 0.00 0.00 0.00 57 1012.3
20260504012500 9 146 0.0 0.0 0.00 0.00 0.00 56 1012.0
20260504011958 9 146 0.0 0.0 0.00 0.00 0.00 56 1012.0
20260504011454 9 146 0.0 0.0 0.00 0.00 0.00 73 1012.0
20260504010949 9 146 0.0 0.0 0.00 0.00 0.00 73 1012.0
20260504010446 10 146 0.0 0.0 0.00 0.00 0.00 54 1011.9
20260504005942 10 146 0.0 0.0 0.00 0.00 0.00 54 1011.9
20260504005439 10 146 0.0 0.0 0.00 0.00 0.00 51 1011.9
20260504004936 10 146 0.0 0.0 0.00 0.00 0.00 51 1011.9
20260504004434 11 146 0.0 0.0 0.00 0.00 0.00 51 1011.9
20260504003931 11 146 0.0 0.0 0.00 0.00 0.00 51 1011.9
20260504003427 11 146 0.0 0.0 0.00 0.00 0.00 48 1011.8
20260504002924 11 146 0.0 0.0 0.00 0.00 0.00 48 1011.8
20260504002421 11 146 0.0 0.0 0.00 0.00 0.00 48 1011.6
20260504001918 11 146 0.0 0.0 0.00 0.00 0.00 48 1011.6
20260504001416 12 145 1.6 1.6 0.00 0.00 0.00 44 1011.6
20260504000912 12 145 1.6 1.6 0.00 0.00 0.00 44 1011.6
20260504000409 12 143 0.0 0.0 0.00 0.00 0.00 41 1011.4
20260503235907 12 143 0.0 0.0 0.00 0.00 0.00 41 1011.4
20260503235405 13 136 0.0 0.0 0.00 0.00 0.00 38 1011.4
20260503234902 13 136 0.0 0.0 0.00 0.00 0.00 38 1011.4
20260503234359 13 140 0.0 0.0 0.00 0.00 0.00 36 1011.1
20260503233857 13 140 0.0 0.0 0.00 0.00 0.00 36 1011.1
20260503233353 13 147 0.0 0.0 0.00 0.00 0.00 35 1011.1
20260503232849 13 147 0.0 0.0 0.00 0.00 0.00 35 1011.1
20260503232347 13 150 0.0 1.6 0.00 0.00 0.00 35 1011.1
20260503231845 13 150 0.0 1.6 0.00 0.00 0.00 35 1011.1
20260503231341 13 146 1.6 3.2 0.00 0.00 0.00 33 1011.2
20260503230837 13 146 1.6 3.2 0.00 0.00 0.00 33 1011.2
20260503230334 14 128 0.0 0.0 0.00 0.00 0.00 34 1011.0
20260503225833 14 128 0.0 0.0 0.00 0.00 0.00 34 1011.0
20260503225328 14 118 3.2 3.2 0.00 0.00 0.00 34 1011.0
20260503224824 14 118 3.2 3.2 0.00 0.00 0.00 34 1011.0
20260503224322 14 137 0.0 0.0 0.00 0.00 0.00 33 1011.3
20260503223819 14 137 0.0 0.0 0.00 0.00 0.00 33 1011.3
20260503223317 14 132 0.0 1.6 0.00 0.00 0.00 32 1011.1
20260503222812 14 132 0.0 1.6 0.00 0.00 0.00 32 1011.1
20260503222311 15 149 1.6 1.6 0.00 0.00 0.00 32 1011.0
20260503221809 15 149 1.6 1.6 0.00 0.00 0.00 32 1011.0
20260503221307 15 135 1.6 1.6 0.00 0.00 0.00 31 1011.0
20260503220803 15 135 1.6 1.6 0.00 0.00 0.00 31 1011.0
20260503220300 15 153 0.0 0.0 0.00 0.00 0.00 33 1011.1
20260503215756 15 153 0.0 0.0 0.00 0.00 0.00 33 1011.1
20260503215253 15 87 1.6 1.6 0.00 0.00 0.00 32 1011.0
20260503214751 15 87 1.6 1.6 0.00 0.00 0.00 32 1011.0
20260503214248 15 94 1.6 1.6 0.00 0.00 0.00 33 1011.0
20260503213746 15 94 1.6 1.6 0.00 0.00 0.00 33 1011.0
20260503213243 15 152 0.0 0.0 0.00 0.00 0.00 33 1010.9
20260503212740 15 148 0.0 0.0 0.00 0.00 0.00 33 1010.7
20260503212238 15 148 0.0 0.0 0.00 0.00 0.00 33 1010.7
20260503211735 15 149 0.0 0.0 0.00 0.00 0.00 30 1010.5
20260503211231 15 149 0.0 0.0 0.00 0.00 0.00 30 1010.5
20260503210726 15 174 0.0 0.0 0.00 0.00 0.00 32 1010.7
20260503210224 15 174 0.0 0.0 0.00 0.00 0.00 32 1010.7
20260503205719 15 119 0.0 0.0 0.00 0.00 0.00 30 1010.7
20260503205216 15 119 0.0 0.0 0.00 0.00 0.00 30 1010.7
20260503204712 15 147 1.6 3.2 0.00 0.00 0.00 34 1010.7
20260503204211 15 147 1.6 3.2 0.00 0.00 0.00 34 1010.7
20260503203707 15 166 0.0 1.6 0.00 0.00 0.00 28 1010.5
20260503203205 15 166 0.0 1.6 0.00 0.00 0.00 28 1010.5
20260503202702 15 107 1.6 1.6 0.00 0.00 0.00 31 1010.7
20260503202200 15 107 1.6 1.6 0.00 0.00 0.00 31 1010.7
20260503201657 15 120 0.0 0.0 0.00 0.00 0.00 29 1010.7
20260503201155 15 120 0.0 0.0 0.00 0.00 0.00 29 1010.7
20260503200651 16 135 1.6 1.6 0.00 0.00 0.00 29 1011.1
20260503200147 16 135 1.6 1.6 0.00 0.00 0.00 29 1011.1
20260503195644 15 116 0.0 0.0 0.00 0.00 0.00 29 1011.0
20260503195141 15 116 0.0 0.0 0.00 0.00 0.00 29 1011.0
20260503194638 15 136 0.0 0.0 0.00 0.00 0.00 31 1011.4
20260503194133 15 136 0.0 0.0 0.00 0.00 0.00 31 1011.4
20260503193631 15 72 1.6 1.6 0.00 0.00 0.00 28 1011.6
20260503193126 15 72 1.6 1.6 0.00 0.00 0.00 28 1011.6
20260503192622 15 115 0.0 0.0 0.00 0.00 0.00 29 1011.4
20260503192118 15 115 0.0 0.0 0.00 0.00 0.00 29 1011.4
20260503191615 16 118 1.6 1.6 0.00 0.00 0.00 29 1011.6
20260503191111 16 118 1.6 1.6 0.00 0.00 0.00 29 1011.6
20260503190609 15 102 0.0 0.0 0.00 0.00 0.00 35 1011.7
20260503190106 15 102 0.0 0.0 0.00 0.00 0.00 35 1011.7
20260503185602 15 60 0.0 0.0 0.00 0.00 0.00 36 1012.0
20260503185102 15 60 0.0 0.0 0.00 0.00 0.00 36 1012.0
20260503184558 13 124 0.0 0.0 0.00 0.00 0.00 34 1012.2
20260503184055 13 124 0.0 0.0 0.00 0.00 0.00 34 1012.2
20260503183551 13 137 1.6 3.2 0.00 0.00 0.00 34 1012.2
20260503183048 13 137 1.6 3.2 0.00 0.00 0.00 34 1012.2
20260503182547 13 119 0.0 1.6 0.00 0.00 0.00 36 1012.3
20260503182045 13 119 0.0 1.6 0.00 0.00 0.00 36 1012.3
20260503181541 13 65 0.0 1.6 0.00 0.00 0.00 35 1012.3
20260503181038 13 65 0.0 1.6 0.00 0.00 0.00 35 1012.3
20260503180535 13 147 0.0 0.0 0.00 0.00 0.00 38 1012.5
20260503180032 13 147 0.0 0.0 0.00 0.00 0.00 38 1012.5
20260503175530 12 123 0.0 0.0 0.00 0.00 0.00 36 1012.8
20260503175027 12 123 0.0 0.0 0.00 0.00 0.00 36 1012.8
20260503174524 12 73 1.6 3.2 0.00 0.00 0.00 34 1012.9
20260503174020 12 73 1.6 3.2 0.00 0.00 0.00 34 1012.9
20260503173515 12 51 3.2 3.2 0.00 0.00 0.00 36 1013.1
20260503173012 12 51 3.2 3.2 0.00 0.00 0.00 36 1013.1
20260503172510 12 152 3.2 3.2 0.00 0.00 0.00 34 1013.2
20260503172006 12 152 3.2 3.2 0.00 0.00 0.00 34 1013.2
20260503171503 13 252 1.6 1.6 0.00 0.00 0.00 39 1013.2
20260503171000 13 252 1.6 1.6 0.00 0.00 0.00 39 1013.2
20260503170456 12 115 1.6 0.0 0.00 0.00 0.00 37 1013.4
20260503150849 10 141 1.6 1.6 0.00 0.00 0.00 36 1014.0
20260503150344 10 122 0.0 0.0 0.00 0.00 0.00 36 1013.9
20260503140309 10 224 0.0 0.0 0.00 0.00 0.00 41 1014.2
20260503131238 8 145 1.6 1.6 0.00 0.00 0.00 50 1014.5
20260503130736 8 145 1.6 1.6 0.00 0.00 0.00 50 1014.5
20260503130233 7 113 0.0 0.0 0.00 0.00 0.00 56 1014.5
20260503120159 5 136 0.0 0.0 0.00 0.00 0.00 64 1014.4